Zellwood, FL (32798)

9:47 PM EDT on September 04, 2015 (GMT -0400)
Rock Springs Ridge | | Change Station
CLOSE
Current Station
Personal Weather Station
Location: Apopka, FL
Elevation: 92 ft
Nearby Weather Stations

Elev 92 ft 28.75 °N, 81.54 °W | Updated 13 seconds ago

Partly Cloudy
Partly Cloudy
74.5 °F
Feels Like 73 °F
N
0.0
Wind Variable Wind from ESE
Gusts 0.0 mph

Today
High -- | Low -- °F
--% Chance of Precip.
Yesterday
High -- | Low -- °F
Precip. -- in
7:05 AM 7:44 PM
Waning Gibbous, 54% visible
Pressure 29.99 in
Visibility 10.0 miles
Clouds Scattered Clouds 12000 ft
Heat Index 73 °F
Dew Point 71 °F
Humidity 90%
Rainfall 0.00 in
Snow Depth Not available.
UV 0 out of 12
Pollen 6.90 out of 12
Air Quality Not available.
Flu Activity Not available.
METAR KLEE 050053Z AUTO 00000KT 10SM SCT120 23/22 A2999 RMK AO2 SLP154 T02330222
Pressure 29.99 in
Visibility 10.0 miles
Clouds Scattered Clouds 12000 ft
Heat Index 73 °F
Dew Point 71 °F
Humidity 90%
Rainfall 0.00 in
Snow Depth Not available.
UV 0 out of 12
Pollen 6.90 out of 12
Air Quality Not available.
Flu Activity Not available.
METAR KLEE 050053Z AUTO 00000KT 10SM SCT120 23/22 A2999 RMK AO2 SLP154 T02330222

10-Day Weather Forecast

×

Almanac

Astronomy

Sep. 04, 2015 Rise Set
Actual Time
Civil Twilight
Nautical Twilight
Astronomical Twilight
Moon
Length of Visible Light
Length of Day
Tomorrow will be .
, % of the Moon is Illuminated

Today's Extremes

State Highs State Lows

Community

WunderPhotos

Upload Photos

1,852,375 photos uploaded!

WunderBlogs® & News

Nearby

Air Quality

  Air Quality AQ Index Pollutant
Not available.

Snow Depth

Station Depth Elevation

Earthquake Activity

City Distance Mag. Time & Date
Minimum magnitude displayed is 2.5.

Coastal Water Temperatures

Place Temperature

Stations

Nearby Weather Stations

Station Location Temp. Windchill Dew Point Humidity Wind Precip. Elev Updated Type